Regional Weather Roundup
Issued by NWS

Home | Current Version | Previous Version | Text Only | Print | Product List | Glossary Off
Versions: 1 2 3 4 5 6 7 8 9 10 11 12 13 14 15 16 17 18 19 20 21 22 23 24 25 26 27 28 29 30 31 32 33 34 35 36 37 38 39 40 41 42 43 44 45 46 47 48 49 50

592
ASUS43 KFSD 190502
RWRSD

WEATHER ROUNDUP FOR SOUTH DAKOTA
NATIONAL WEATHER SERVICE SIOUX FALLS SD
1100 PM CST WED JAN 18 2017

NOTE: "FAIR" INDICATES FEW OR NO CLOUDS BELOW 12,000 FEET WITH NO
SIGNIFICANT WEATHER AND/OR OBSTRUCTIONS TO VISIBILITY.


SDZ001>005-009-010-012>017-190600-
NORTHWEST AND NORTH CENTRAL SOUTH DAKOTA

CITY           SKY/WX    TMP DP  RH WIND       PRES   REMARKS
BUFFALO          N/A     32  22  66 W6        29.50F WCI  26
FAITH            N/A     21  18  88 S6        29.57F WCI  13
MOBRIDGE       CLOUDY    20  14  77 SE8       29.58F WCI  10
$$

SDZ012>016-024>037-041>051-057-063-072>074-190600-
SOUTHWEST AND SOUTH CENTRAL SOUTH DAKOTA

CITY           SKY/WX    TMP DP  RH WIND       PRES   REMARKS
RAPID CTY ARPT CLOUDY    25  20  81 W3        29.56F
PIERRE         CLOUDY    20  16  84 CALM      29.61F
CUSTER         CLOUDY    30  16  56 W5        29.62F WCI  25
ELLSWORTH AFB  CLOUDY    28  25  86 NW7       29.56F WCI  21
PHILIP         CLOUDY    17  15  92 CALM      29.59F
PINE RIDGE     CLOUDY    33  25  72 W5        29.60F WCI  29
SPEARFISH      FAIR      36  23  60 SW9       29.61R
WINNER         FAIR      40  26  57 SW8       29.65R
$$

SDZ004>011-016>023-039-040-190600-
NORTHEAST SOUTH DAKOTA

CITY           SKY/WX    TMP DP  RH WIND       PRES   REMARKS
ABERDEEN       FOG       16  13  88 E3        29.67F VSB 1/4
WATERTOWN      FOG       27  27 100 S8        29.70S VSB 1/4 WCI  19
BROOKINGS      CLOUDY    34  33  96 S5        29.74R WCI  30
SISSETON         N/A     26  24  92 S3        29.69F
$$

SDZ017-020-022-023-036>040-048>070-190600-
SOUTHEAST SOUTH DAKOTA

CITY           SKY/WX    TMP DP  RH WIND       PRES   REMARKS
SIOUX FALLS    CLEAR     37  36  96 S12       29.77R
HURON          CLOUDY    33  33 100 S12       29.68S WCI  24
CHAMBERLAIN    CLOUDY    32  26  79 S8        29.66S WCI  25
MITCHELL       CLOUDY    36  33  89 S10       29.72R
YANKTON        CLEAR     39  36  87 S6        29.76S
$$

ABBREVIATIONS USED IN REMARKS
   TC - TEMPERATURE IN CELSIUS
  WCI - WIND CHILL INDEX
   HX - HEAT INDEX
  VSB - VISIBILITY





USA.gov is the U.S. government's official web portal to all federal, state and local government web resources and services.